STARLINK-34493, 64472

Orbit data source: Space-Track

STARLINK-34493, 64472 is a payload satellite owned by SpaceX/Seattle (US) in LEO that was launched on Mon, 23 Jun 2025 UTC via an FALCON 9 launch vehicle from the Air Force Eastern Test Range (AFETR). Payload-class satellites include a variety of spacecraft equipped with specific instruments for various scientific and technological missions. These include communications satellites like Starlink; space stations such as the ISS; scientific satellites like the Hubble; Earth observation satellites from companies like Planet Labs, Umbra, and HawkEye 360; GPS; miniature CubeSats for education and research; and military/defense satellites.

Loading next visibility...
Identifier
64472, 2025-133A
Orbit
LEO
Last TLE update
6 hours ago
Origin
Manufacturer
SpaceX/Seattle
Mission
Operational spacecraft
Bus & Motor
STARLINK V2MO, Unknown motor
Mass
575 kg wet, ~530 kg dry
Launch date (UTC)
2025-06-23 (1 week ago)
Launch vehicle
FALCON 9
Launch site
Air Force Eastern Test Range (AFETR)
Object type
Payload
Rocket body
Debris
Shape & HBR
Unknown
Radar Cross Section
RCS unknown

Expand to show TLE details & history

TLE from 6 hours ago
0 STARLINK-34493
1 64472U 25133A   25182.50002315 -.01010095  00000-0 -44285-2 0  9994
2 64472  53.1560 216.3205 0000882  63.7686 206.0840 15.86314054  2546
Epoch: 2025-07-01T12:00Z
TLE epoch observation values (Epoch: 2025-07-01T12:00:02Z)
Latitude
-53.31087°
Longitude
26.26495°
Altitude
331.672 km
Speed
7.709 km/s
True Right ascension
08h 24m 16s
True Declination
-53° 08' 08"
Sunlit
Object was in daylight at epoch
Visualization orbit readout
Latitude
-51.10304°
Longitude
47.79113°
Altitude
332.35 km
Speed
7.708 km/s
Apparent Right ascension
14h 17m 02s
Apparent Declination
-63° 16' 33"
Sunlit
Object is in daylight
Visualization observer readout
Local Sidereal Time
05:46:16
Azimuth
145.022° SSE
Elevation
-51.628°
Doppler factor
1
Orbital elements
Apogee altitude
313.481 km
Perigee altitude
312.3 km
Semi-major axis
6,691.027 km
Eccentricity
0.00009
Inclination
53.156°
RAAN
216.3205°
Arg. of periapsis
63.7686°
True anomaly
Unknown
Mean anomaly
206.084°
Eccentric anomaly
Unknown
Mean motion
3.96555 °/min
Orbital period
90.78 mins
BSTAR
-0.0044285
Loading maneuver chart data...
Loading SW <> Apogee altitude chart data...
Loading historical data...
Loading historical data...
Loading historical data...
Loading historical data...
Loading historical data...
Loading historical data...
Loading historical data...

STARLINK-34493 Visibility forecast

Observer location: undefined°, undefined°

Span
Click to sort rows by Start time (UTC) header in descending order
Start Az.
Max El. time (UTC)
Max El. Az.
Max El.
End time (UTC)
End Az.
5 mins2025-07-02 05:12:33.868Z238.679° WSW2025-07-02 05:14:33.868Z266.148° W37.291°2025-07-02 05:17:33.868Z44.217° NE
4 mins2025-07-02 11:34:33.868Z322.026° NNW2025-07-02 11:35:33.868Z345.228° N36.941°2025-07-02 11:38:33.868Z120.573° SE
|